[[{"header":{"parameterUnit":"m.s-1","parameterCategory":1,"la1":30.2991,"la2":30.254,"lo1":-89.0895,"lo2":-89.0444,"dx":0.0017,"dy":0.0017,"nx":28,"ny":28,"refTime":"2023-01-13T09:00:00:Z","depth":0,"parameterNumber":2,"parameterNumberName":"U-component_of_WINDS"},"data":[0,0,0,0,0,0,0,0,0,0,0,0,0,0,0,0,0,0,0,0,0,0,0,0,0,0,0,0,0,0,0,0,0,0,0,0,0,0,0,0,0,0,0,0,0,0,0,0,0,0,0,0,0,0,0,0,0,0,3.0221,3.0222,0,3.0295,3.0296,3.0297,3.0268,3.0267,3.0265,3.0263,3.0341,3.0345,3.0348,0,0,0,0,0,0,0,0,0,0,0,0,0,3.0059,3.0062,3.0221,3.0222,3.0223,3.0295,3.0296,3.0297,3.0269,3.0266,3.0264,3.0262,3.034,3.0344,3.0348,0,0,0,0,0,0,0,0,0,0,0,0,0,3.0131,3.0063,3.0221,3.0217,3.0218,3.0294,3.0296,3.0297,3.0269,3.0266,3.0264,3.0261,3.0338,3.0344,3.0349,3.0434,0,0,3.0366,3.0368,0,0,0,0,0,0,0,0,3.0127,3.0137,3.0217,3.0218,3.0218,3.027,3.0267,3.0343,3.027,3.025,3.0263,3.026,3.0319,3.0326,3.0346,3.0438,3.0441,3.0366,3.037,3.0372,3.0374,0,0,0,0,0,0,0,3.0122,3.0133,3.025,3.0218,3.0219,3.0213,3.0221,3.0281,3.0298,3.0251,3.0249,3.0258,3.0319,3.0341,3.0347,3.0442,3.0366,3.0371,3.0374,3.0377,3.0611,3.0614,0,0,0,0,0,0,3.0116,3.0129,3.0248,3.0252,3.0165,3.0218,3.0227,3.0256,3.0297,3.0301,3.026,3.0257,3.0333,3.0341,3.035,3.0455,3.0372,3.0377,3.038,3.0608,3.0612,3.0615,0,0,0,0,0,0,3.0113,3.0127,3.0245,3.0191,3.0205,3.0224,3.0257,3.0259,3.028,3.0304,3.0307,3.0279,3.0331,3.0342,3.0414,3.0457,3.038,3.0385,3.0605,3.0609,3.0613,3.0663,0,0,0,0,0,0,3.0108,3.0126,3.0158,3.0191,3.0208,3.0307,3.0259,3.0262,3.0289,3.0285,3.0322,3.0326,3.033,3.0406,3.042,3.0463,3.0389,3.0601,3.0607,3.0612,3.0658,3.0668,3.0678,0,0,0,0,0,3.0103,3.0168,3.0159,3.0174,3.0248,3.0309,3.0319,3.0321,3.0293,3.0325,3.0342,3.0325,3.045,3.0414,3.0429,3.0474,3.0598,3.0605,3.0611,3.0653,3.0666,3.0678,0,0,0,0,0,0,3.0139,3.0173,3.0163,3.0241,3.0273,3.0304,3.0345,3.0334,3.0375,3.0369,3.0371,3.038,3.0454,3.0471,3.043,3.056,3.052,3.053,3.0546,3.0559,3.0569,3.0564,3.0393,0,0,0,0,0,3.0156,3.0202,3.0229,3.0296,3.0312,3.0326,3.0353,3.0352,3.0385,3.0398,3.0419,3.0452,3.0499,3.053,3.0574,3.066,3.0669,3.0699,3.0709,3.0717,3.0726,3.0775,3.079,3.0636,3.0636,3.0636,0,0,3.0192,3.0216,3.0245,3.0304,3.0328,3.0378,3.0338,3.0391,3.0428,3.0406,3.0476,3.0493,3.053,3.0609,3.0646,3.0626,3.077,3.0726,3.0732,3.0736,3.0784,3.0798,3.0811,3.0641,3.064,3.0639,0,0,3.0283,3.0305,3.0364,3.039,3.0427,3.0436,3.045,3.0484,3.0495,3.0564,3.055,3.0594,3.0674,3.0702,3.0727,3.0831,3.0818,3.0845,3.0899,3.0947,3.0959,3.0969,3.1009,3.1023,3.0854,3.0854,3.0854,0,3.0324,3.0396,3.0396,3.0451,3.0479,3.0462,3.0523,3.0547,3.0597,3.0617,3.0594,3.0696,3.072,3.0807,3.0833,3.0853,3.0871,3.0841,3.0957,3.0968,3.0978,3.1015,3.103,3.0857,3.0857,3.0857,3.0856,0,3.0445,3.0496,3.0539,3.0588,3.062,3.0678,3.0689,3.0721,3.0718,3.073,3.0803,3.0831,3.0882,3.0902,3.0899,3.099,3.0977,3.0956,3.0915,3.0995,3.1031,3.1045,3.0862,3.0861,3.086,3.0859,0,0,3.0561,3.061,3.0626,3.0649,3.069,3.073,3.0788,3.0837,3.0867,3.0902,3.0952,3.1021,3.1002,3.103,3.1031,3.1073,3.1156,3.1046,3.1047,3.1068,3.1261,3.1278,3.1295,3.1148,3.1151,3.1153,3.1259,0,3.0657,3.0758,3.0761,3.0854,3.0902,3.0887,3.0938,3.097,3.0983,3.1027,3.1042,3.1092,3.1062,3.1079,3.112,3.1138,3.1196,3.113,3.1196,3.1199,3.1189,3.1313,3.133,3.1429,3.1272,3.1274,3.1276,0,3.0782,3.0822,3.092,3.0955,3.0976,3.1021,3.1068,3.111,3.1146,3.1153,3.1185,3.118,3.1241,3.1198,3.1284,3.1239,3.1267,3.128,3.1284,3.1292,3.1243,3.1325,3.146,3.1476,3.1298,3.1296,3.1294,0,3.0859,3.0937,3.1007,3.1026,3.1069,3.1102,3.1122,3.1155,3.1185,3.1227,3.1247,3.1295,3.1322,3.136,3.1369,3.1336,3.1455,3.1412,3.1465,3.1465,3.1491,3.149,3.1634,3.1506,3.1506,3.1506,3.1505,0,3.0967,3.1028,3.1042,3.1085,3.1154,3.1157,3.1226,3.1243,3.1273,3.1321,3.131,3.1355,3.1363,3.141,3.1418,3.1489,3.1501,3.1509,3.1511,3.1511,3.1511,3.153,3.1525,3.151,3.1509,3.1508,3.1507,0,3.1065,3.1077,3.1152,3.1187,3.1197,3.1246,3.1277,3.1319,3.1331,3.1392,3.1406,3.1426,3.1481,3.1494,3.1559,3.1564,3.165,3.1643,3.1637,3.1637,3.169,3.1686,3.1853,3.1877,3.1732,3.1733,3.1734,0,3.1134,3.1181,3.1221,3.1252,3.1273,3.1322,3.1353,3.1359,3.1392,3.1438,3.1475,3.1529,3.1573,3.1662,3.1684,3.1734,3.1731,3.1786,3.1738,3.1738,3.1734,3.1732,3.1738,3.1796,3.1797,3.1798,3.1799,0,3.1255,3.1259,3.1304,3.1352,3.139,3.1428,3.1464,3.149,3.1501,3.1539,3.1595,3.1629,3.1697,3.1751,3.1803,3.1824,3.1815,3.1814,3.1829,3.1831,3.1827,3.1832,3.1664,3.1811,3.1809,3.1809,3.1808,3.1808,3.1343,3.1384,3.142,3.1471,3.1499,3.1533,3.1575,3.1593,3.164,3.1695,3.1696,3.1758,3.1795,3.1863,3.1888,3.1938,3.1921,3.1942,3.1948,3.1954,3.196,3.1817,3.1947,3.1947,3.1946,3.1946,3.1946,0,3.1466,3.1488,3.1535,3.1586,3.1627,3.1613,3.1653,3.1689,3.1744,3.1779,3.1822,3.1888,3.1942,3.1968,3.2021,3.2056,3.2054,3.207,3.2069,3.2074,3.1971,3.1953,3.2072,3.2072,3.2072,3.2072,3.2072,3.2072,3.1534,3.1605,3.1614,3.1699,3.1721,3.1782,3.1806,3.1839,3.1867,3.1941,3.1985,3.2002,3.2034,3.209,3.214,3.2146,3.2167,3.2187,3.2191,3.2094,3.2081,3.2069,3.2053,3.2191,3.2191,3.2291,3.2292,3.2293]},{"header":{"parameterUnit":"m.s-1","parameterCategory":1,"la1":30.2991,"la2":30.254,"lo1":-89.0895,"lo2":-89.0444,"dx":0.0017,"dy":0.0017,"nx":28,"ny":28,"refTime":"2023-01-13T09:00:00:Z","depth":0,"parameterNumber":3,"parameterNumberName":"V-component_of_WINDS"},"data":[0,0,0,0,0,0,0,0,0,0,0,0,0,0,0,0,0,0,0,0,0,0,0,0,0,0,0,0,0,0,0,0,0,0,0,0,0,0,0,0,0,0,0,0,0,0,0,0,0,0,0,0,0,0,0,0,0,0,-3.0404,-3.0405,0,-3.051,-3.0511,-3.0513,-3.0557,-3.0557,-3.0557,-3.0557,-3.0664,-3.0667,-3.067,0,0,0,0,0,0,0,0,0,0,0,0,0,-3.0241,-3.0243,-3.0404,-3.0405,-3.0407,-3.051,-3.0511,-3.0513,-3.0558,-3.0557,-3.0557,-3.0557,-3.0663,-3.0666,-3.067,0,0,0,0,0,0,0,0,0,0,0,0,0,-3.0326,-3.0244,-3.0404,-3.0442,-3.0446,-3.051,-3.0511,-3.0513,-3.0558,-3.0557,-3.0557,-3.0557,-3.0662,-3.0666,-3.067,-3.0704,0,0,-3.0684,-3.0686,0,0,0,0,0,0,0,0,-3.0321,-3.0332,-3.0435,-3.0439,-3.0444,-3.052,-3.0493,-3.0577,-3.0558,-3.0515,-3.0557,-3.0557,-3.0616,-3.0624,-3.0645,-3.0709,-3.0714,-3.0685,-3.0687,-3.0689,-3.0691,0,0,0,0,0,0,0,-3.0315,-3.0327,-3.0446,-3.0436,-3.0442,-3.0453,-3.0465,-3.0509,-3.0566,-3.0519,-3.0522,-3.0534,-3.0619,-3.064,-3.0648,-3.0715,-3.0685,-3.0689,-3.0691,-3.0693,-3.0815,-3.0816,0,0,0,0,0,0,-3.0303,-3.0322,-3.0443,-3.0449,-3.0381,-3.0456,-3.047,-3.0496,-3.0566,-3.0576,-3.0534,-3.0536,-3.0633,-3.0642,-3.0652,-3.0697,-3.0689,-3.0694,-3.0696,-3.0815,-3.0815,-3.0816,0,0,0,0,0,0,-3.0299,-3.0313,-3.0438,-3.0387,-3.0404,-3.046,-3.0489,-3.0498,-3.052,-3.0577,-3.0588,-3.0546,-3.0633,-3.0645,-3.0691,-3.0702,-3.0696,-3.07,-3.0814,-3.0815,-3.0816,-3.0788,0,0,0,0,0,0,-3.0294,-3.0311,-3.0324,-3.0387,-3.0406,-3.0476,-3.049,-3.0501,-3.0528,-3.0531,-3.0591,-3.0601,-3.0634,-3.0684,-3.0696,-3.0708,-3.0703,-3.0813,-3.0814,-3.0815,-3.0788,-3.0787,-3.0787,0,0,0,0,0,-3.0288,-3.0311,-3.0325,-3.0339,-3.0424,-3.0477,-3.0488,-3.0525,-3.0529,-3.0543,-3.058,-3.0599,-3.0699,-3.0689,-3.0702,-3.0715,-3.0813,-3.0814,-3.0815,-3.0788,-3.0787,-3.0787,0,0,0,0,0,0,-3.0248,-3.032,-3.0336,-3.038,-3.0422,-3.0484,-3.0502,-3.0523,-3.0565,-3.0566,-3.061,-3.0624,-3.0666,-3.0696,-3.0683,-3.0753,-3.0758,-3.0761,-3.0732,-3.0732,-3.0732,-3.0724,-3.0707,0,0,0,0,0,-3.0244,-3.0281,-3.0342,-3.0375,-3.0396,-3.0446,-3.047,-3.0496,-3.0541,-3.0559,-3.0599,-3.0642,-3.0683,-3.0709,-3.075,-3.0793,-3.0807,-3.0808,-3.0808,-3.0807,-3.081,-3.0837,-3.0839,-3.082,-3.082,-3.082,0,0,-3.0236,-3.0281,-3.0301,-3.0369,-3.0404,-3.0442,-3.046,-3.0499,-3.0528,-3.0564,-3.0611,-3.0642,-3.0693,-3.0738,-3.076,-3.0764,-3.0819,-3.0809,-3.0808,-3.0811,-3.0838,-3.084,-3.0841,-3.0821,-3.082,-3.082,0,0,-3.0242,-3.0279,-3.0312,-3.0348,-3.0402,-3.0435,-3.0443,-3.0503,-3.0526,-3.0574,-3.0603,-3.0638,-3.0707,-3.0743,-3.077,-3.0793,-3.0813,-3.0805,-3.0802,-3.0828,-3.0829,-3.0831,-3.084,-3.0843,-3.0808,-3.0807,-3.0807,0,-3.0226,-3.0284,-3.0325,-3.0364,-3.0393,-3.043,-3.0464,-3.0496,-3.0561,-3.058,-3.0584,-3.0674,-3.0711,-3.0766,-3.0771,-3.0792,-3.0803,-3.0798,-3.0826,-3.0828,-3.083,-3.0839,-3.0842,-3.0806,-3.0806,-3.0807,-3.0807,0,-3.0262,-3.0302,-3.0322,-3.0385,-3.0417,-3.0452,-3.05,-3.0527,-3.0551,-3.0584,-3.0633,-3.0679,-3.0731,-3.0746,-3.0769,-3.0805,-3.0806,-3.0817,-3.0822,-3.083,-3.0839,-3.0843,-3.0805,-3.0805,-3.0805,-3.0806,0,0,-3.0243,-3.0331,-3.0338,-3.0368,-3.0432,-3.0464,-3.0502,-3.0554,-3.0577,-3.0621,-3.0654,-3.0714,-3.0726,-3.0757,-3.0784,-3.0806,-3.0824,-3.0815,-3.0817,-3.0816,-3.0868,-3.086,-3.0863,-3.0837,-3.0838,-3.0839,-3.0864,0,-3.0258,-3.0329,-3.0368,-3.0422,-3.0461,-3.0498,-3.0531,-3.0574,-3.0607,-3.0645,-3.0681,-3.0723,-3.0734,-3.0754,-3.0778,-3.0816,-3.0835,-3.0815,-3.087,-3.0871,-3.0856,-3.0868,-3.0859,-3.088,-3.0868,-3.0869,-3.0869,0,-3.0285,-3.033,-3.0388,-3.045,-3.0468,-3.0497,-3.0549,-3.0585,-3.0635,-3.0658,-3.0694,-3.0722,-3.0764,-3.0767,-3.0827,-3.0813,-3.0838,-3.086,-3.0862,-3.0869,-3.087,-3.0875,-3.0888,-3.0891,-3.0875,-3.0875,-3.0874,0,-3.0267,-3.0342,-3.0387,-3.0411,-3.0484,-3.0505,-3.0536,-3.0586,-3.0616,-3.0661,-3.0681,-3.0731,-3.0758,-3.0796,-3.0837,-3.0835,-3.0894,-3.0899,-3.0914,-3.0913,-3.0924,-3.0923,-3.0942,-3.094,-3.094,-3.094,-3.094,0,-3.0279,-3.0314,-3.038,-3.0408,-3.0448,-3.0494,-3.0532,-3.0567,-3.0612,-3.0647,-3.0682,-3.0714,-3.0767,-3.0806,-3.0839,-3.0884,-3.0896,-3.0916,-3.0924,-3.0913,-3.0911,-3.093,-3.093,-3.0941,-3.094,-3.094,-3.094,0,-3.0265,-3.0311,-3.0363,-3.0429,-3.0447,-3.0473,-3.053,-3.0559,-3.0594,-3.0639,-3.0652,-3.0708,-3.0756,-3.0802,-3.0866,-3.0888,-3.0934,-3.0944,-3.0917,-3.0922,-3.0934,-3.0933,-3.0966,-3.0973,-3.0966,-3.0966,-3.0966,0,-3.027,-3.0298,-3.0368,-3.0395,-3.0426,-3.0468,-3.0499,-3.0546,-3.0577,-3.0638,-3.066,-3.0712,-3.0755,-3.0831,-3.0877,-3.0927,-3.0939,-3.0948,-3.0947,-3.0936,-3.0941,-3.0939,-3.0942,-3.0947,-3.0946,-3.0946,-3.0946,0,-3.0275,-3.0297,-3.0341,-3.0393,-3.043,-3.0473,-3.0517,-3.0537,-3.0593,-3.0626,-3.0677,-3.0711,-3.0778,-3.0829,-3.0884,-3.0917,-3.0941,-3.0946,-3.0953,-3.0942,-3.0925,-3.0935,-3.0916,-3.0945,-3.0945,-3.0945,-3.0945,-3.0945,-3.0272,-3.0299,-3.0353,-3.0401,-3.044,-3.0481,-3.0512,-3.0553,-3.0596,-3.0655,-3.068,-3.0732,-3.0784,-3.0862,-3.0894,-3.0936,-3.0941,-3.095,-3.0952,-3.0954,-3.0952,-3.0919,-3.0946,-3.0946,-3.0946,-3.0946,-3.0946,0,-3.0279,-3.0316,-3.036,-3.0422,-3.0461,-3.0481,-3.0532,-3.0563,-3.0608,-3.0655,-3.0698,-3.0758,-3.0808,-3.0859,-3.0913,-3.0936,-3.0949,-3.0949,-3.0948,-3.0955,-3.0944,-3.0933,-3.0938,-3.0938,-3.0938,-3.0938,-3.0938,-3.0938,-3.0287,-3.0335,-3.0364,-3.0432,-3.0469,-3.0521,-3.0548,-3.0587,-3.0625,-3.069,-3.0733,-3.0766,-3.0816,-3.0874,-3.0921,-3.0935,-3.0953,-3.095,-3.0967,-3.0955,-3.0956,-3.0956,-3.0947,-3.0954,-3.0954,-3.0976,-3.0976,-3.0976]}]]